Douglas, WY

1:38 PM MDT on August 18, 2017 (GMT -0600)
Converse County

Weather History for KDGW - July, 2013

Change the Weather History Date:

Monday, July 8, 2013

  Actual Average Record
Temperature  
Mean Temperature 78 °F 70 °F  
Max Temperature 94 °F 87 °F 99 °F (2005)
Min Temperature 61 °F 53 °F 40 °F (2010)
Cooling Degree Days 13 6  
Month to date cooling degree days 70 42  
Year to date cooling degree days 192 119  
Since 1 June cooling degree days 176 113  
Growing Degree Days 27 (Base 50)    
Moisture  
Dew Point 50 °F    
Average Humidity 48    
Maximum Humidity 78    
Minimum Humidity 17    
Precipitation  
Precipitation 0.00 in 0.05 in 0.19 in (2007)
Month to date precipitation 0.20 0.39  
Year to date precipitation 5.39 7.94  
Sea Level Pressure  
Sea Level Pressure 29.89 in    
Wind  
Wind Speed 10 mph (WNW)    
Max Wind Speed 26 mph    
Max Gust Speed 32 mph    
Visibility 10 miles    
Events      
T = Trace of Precipitation, MM = Missing Value Source: NWS Daily Summary

Daily Weather History Graph

Daily Weather History Graph

Search for Another Location

Airport or City:

Trip Planner

Search our weather history database for the weather conditions in past years. The results will help you decide how hot, cold, wet, or windy it might be!

Date:

Astronomy

Jul. 08, 2013 Rise Set
Actual Time 5:31 AM MDT 8:41 PM MDT
Civil Twilight 4:56 AM MDT 9:16 PM MDT
Nautical Twilight 4:12 AM MDT 10:00 PM MDT
Astronomical Twilight 3:18 AM MDT 10:53 PM MDT
Moon 6:05 AM MDT (7/8) 8:42 PM MDT (7/8)
Length of Visible Light 16h 19m
Length of Day
15h 10m
New Moon, 0% of the Moon is Illuminated
Jul 8
New Moon
Jul 15
First Quarter
Jul 22
Full
Jul 29
Last Quarter
Aug 6
New

Hourly Weather History & Observations

Time (MDT) Temp. Dew Point Humidity Pressure Visibility Wind Dir Wind Speed Gust Speed Precip Events Conditions
12:53 AM 70.0 °F 54.0 °F 57% 29.86 in 10.0 mi ESE 6.9 mph - N/A   Clear
1:53 AM 69.1 °F 54.0 °F 58% 29.87 in 10.0 mi WNW 5.8 mph - N/A   Clear
2:53 AM 64.0 °F 52.0 °F 65% 29.88 in 10.0 mi Calm Calm - N/A   Clear
3:53 AM 64.0 °F 54.0 °F 70% 29.88 in 10.0 mi NW 5.8 mph - N/A   Clear
4:53 AM 62.1 °F 54.0 °F 75% 29.90 in 10.0 mi NW 10.4 mph - N/A   Partly Cloudy
5:53 AM 61.0 °F 53.1 °F 75% 29.92 in 10.0 mi NW 8.1 mph - N/A   Partly Cloudy
6:53 AM 63.0 °F 54.0 °F 72% 29.93 in 10.0 mi WNW 4.6 mph - N/A   Clear
7:53 AM 64.9 °F 55.0 °F 70% 29.94 in 10.0 mi West 4.6 mph - N/A   Clear
8:53 AM 69.1 °F 57.0 °F 65% 29.93 in 10.0 mi West 3.5 mph - N/A   Clear
9:53 AM 73.0 °F 57.0 °F 57% 29.93 in 10.0 mi NW 8.1 mph - N/A   Clear
10:53 AM 78.1 °F 55.9 °F 46% 29.93 in 10.0 mi Variable 6.9 mph - N/A   Clear
11:53 AM 88.0 °F 48.9 °F 26% 29.87 in 10.0 mi NW 17.3 mph - N/A   Clear
12:53 PM 91.9 °F 44.1 °F 19% 29.85 in 10.0 mi WNW 16.1 mph - N/A   Clear
1:53 PM 93.0 °F 42.1 °F 17% 29.83 in 10.0 mi WNW 13.8 mph 19.6 mph N/A   Partly Cloudy
2:53 PM 91.0 °F 42.1 °F 18% 29.84 in 10.0 mi WNW 13.8 mph - N/A   Mostly Cloudy
3:53 PM 90.0 °F 44.1 °F 20% 29.84 in 10.0 mi WNW 17.3 mph 24.2 mph N/A   Clear
4:53 PM 88.0 °F 42.1 °F 20% 29.85 in 10.0 mi West 15.0 mph 26.5 mph N/A   Clear
5:20 PM 86.0 °F 44.6 °F 23% 30.04 in 10.0 mi SW 15.0 mph 26.5 mph N/A   Clear
5:53 PM 89.1 °F 42.1 °F 19% 29.83 in 10.0 mi WSW 18.4 mph 23.0 mph N/A   Clear
6:53 PM 88.0 °F 39.9 °F 18% 29.82 in 10.0 mi West 11.5 mph - N/A   Clear
7:53 PM 84.9 °F 42.1 °F 22% 29.83 in 10.0 mi SSW 8.1 mph - N/A   Clear
8:53 PM 73.0 °F 53.1 °F 49% 29.88 in 10.0 mi SE 13.8 mph - N/A   Clear
9:53 PM 71.1 °F 52.0 °F 51% 29.91 in 10.0 mi SE 6.9 mph 18.4 mph N/A   Clear
10:53 PM 66.0 °F 52.0 °F 60% 29.92 in 10.0 mi Calm Calm - N/A   Clear
11:53 PM 64.0 °F 52.0 °F 65% 29.92 in 10.0 mi NNW 10.4 mph - N/A   Partly Cloudy